Location: *
(51.1248°S, 108.4023°W)
Time: 21:52:05
(UTC+00:00)

Lacrosse 4 Rocket - Pass Details

Date: 15 June 2021
Orbit: 543 x 614 km, 68.0° (Epoch: 04 August)

Event Time Altitude Azimuth Distance (km) Brightness Sun altitude
Rises 12:31:14 0° 11° (NNE) 2,743 5.1 -24.6°
Reaches altitude 10° 12:34:00 10° 31° (NNE) 1,870 4.5 -24.1°
Maximum altitude 12:36:46 17° 73° (ENE) 1,478 4.4 -23.7°
Drops below altitude 10° 12:39:35 10° 114° (ESE) 1,916 4.8 -23.3°
Sets 12:42:28 0° 133° (SE) 2,842 5.5 -22.8°
